Hourly Data Report for October 04, 2016

All times are specified in Local Standard Time (LST). Add 1 hour to adjust for Daylight Saving Time where and when it is observed.

ARVIAT A
NUNAVUT

61°05'38.000" N
94°04'18.000" W
10.40 m
2300427
71174
YEK

Download Data

Hourly Data (October 2016)
Hourly Data Report for October 4, 2016
Temp Definition
°C
Dew Point Temp Definition
°C
Rel Hum Definition
%
Wind Dir Definition
10's deg

Wind Spd Definition
km/h
Visibility Definition
km
Stn Press Definition
kPa
Hmdx Definition


Wind Chill Definition


Weather Definition


TIME
00:00 Legend Double Dagger 1.1 -2.0 80 30 63 16.1 100.29     LegendNANA
01:00 Legend Double Dagger 0.7 -1.9 83 29 45 16.1 100.45     LegendNANA
02:00 Legend Double Dagger 0.8 -1.8 83 30 46 16.1 100.54     LegendNANA
03:00 Legend Double Dagger 0.8 -1.8 83 32 43 16.1 100.67     LegendNANA
04:00 Legend Double Dagger 0.0 -2.1 86 31 43 16.1 100.80   -8 LegendNANA
05:00 Legend Double Dagger -0.5 -2.5 86 30 48 16.1 100.91   -9 LegendNANA
06:00 Legend Double Dagger -1.0 -2.5 90 31 41 16.1 101.05   -9 LegendNANA
07:00 Legend Double Dagger -1.3 -3.7 84 31 41 16.1 101.18   -9 LegendNANA
08:00 Legend Double Dagger -0.7 -3.4 82 31 45 16.1 101.24   -9 LegendNANA
09:00 Legend Double Dagger -0.7 -2.9 85 31 39 16.1 101.36   -8 LegendNANA
10:00 Legend Double Dagger -0.3 -2.7 84 32 41 16.1 101.42   -8 LegendNANA
11:00 Legend Double Dagger 0.3 -2.8 80 32 43 16.1 101.48     LegendNANA
12:00 Legend Double Dagger 0.7 -2.7 78 32 34 16.1 101.58     LegendNANA
13:00 Legend Double Dagger 1.5 -3.1 72 32 32 16.1 101.63     LegendNANA
14:00 Legend Double Dagger 1.5 -4.1 67 33 39 16.1 101.68     LegendNANA
15:00 Legend Double Dagger 1.2 -4.3 67 34 41 16.1 101.78     LegendNANA
16:00 Legend Double Dagger 1.0 -4.6 66 32 35 16.1 101.88     LegendNANA
17:00 Legend Double Dagger 0.6 -4.1 71 32 26 16.1 101.99     LegendNANA
18:00 Legend Double Dagger -0.2 -4.6 73 34 26 16.1 102.02   -6 LegendNANA
19:00 Legend Double Dagger -0.8 -4.0 79 32 24 16.1 102.08   -7 LegendNANA
20:00 Legend Double Dagger -1.4 -4.2 81 33 22 16.1 102.11   -7 LegendNANA
21:00 Legend Double Dagger -0.9 -3.8 81 34 22 16.1 102.20   -7 LegendNANA
22:00 Legend Double Dagger -1.5 -4.6 80 33 28 16.1 102.27   -8 LegendNANA
23:00 Legend Double Dagger -1.7 -4.0 85 32 24 16.1 102.32   -8 LegendNANA

Notes on Data Quality.

Legend

  • E = Estimated
  • M = Missing
  • NA = Not Available
  • ‡ = Partner data that is not subject to review by the National Climate Archives
Date modified: